Find Starlink 35940

NORAD ID: 66617 Int'l Des: 2025-271 Owner: SPXS Country: US Constellation: starlink operational
LEOCIRCULAR

当前视图

正在加载3D地球...

About Starlink 35940

Starlink 35940 (NORAD 66617) is a starlink constellation satellite (v2 mini) launched Nov 23, 2025 by SPXS of US. It operates in LEO, CIRCULAR orbit with a mass of 575.00 kg.

关于 Starlink 35940

正在加载描述...

即将过境

Passes for default location (London). Set your location on the main map for personalized predictions.

高度历史

Loading altitude history...

两行轨道根数

1 66617U 25271A 26195.52326550 .00003705 00000-0 13713-3 0 9997
2 66617 53.1591 270.9406 0000820 117.0389 243.0696 15.30200215 36984
Epoch: Jul 14, 2026 • Age: 3 hours

当前状态

高度 480.8 km
远地点 / 近地点 N/A
速度 7.63 km/s
星下点 50.83°N, 163.58°E
发射日期 Nov 23, 2025
运行时间 0.6 years
类型 internet

技术详情

分类 Payload
质量 575.00 kg
干质量 530.00 kg
总质量 575.00 kg
长度 0.30 m
直径 4.10 m
跨度 29.00 m
形状 Box + pan
制造商 SPXS
平台类型 Starlink V2MO
阶段状态 In Orbit
所有者/国家 SPXS/US

Most Searched